This is the latest recevied weather packets stored in our database for station/object K6POO-1. If no packets are shown the sender has not sent any weather packets the latest 10 day(s).
| Time | Temp. | Humidity | Pressure | Rain* | Wind** | Luminosity | Snow |
|---|---|---|---|---|---|---|---|
| 1788108763 | 15° C | 85% | 1015.1 hPa | 0 mm | - | 591 W/m² | - |
| 1788108459 | 15° C | 86% | 1014.9 hPa | 0 mm | - | 430 W/m² | - |
| 1788108155 | 14.44° C | 86% | 1014.9 hPa | 0 mm | - | 353 W/m² | - |
| 1788107851 | 14.44° C | 86% | 1014.8 hPa | 0 mm | - | 443 W/m² | - |
| 1788107547 | 14.44° C | 87% | 1014.8 hPa | 0 mm | - | 366 W/m² | - |
| 1788107241 | 14.44° C | 88% | 1014.8 hPa | 0 mm | - | 374 W/m² | - |
| 1788106938 | 14.44° C | 88% | 1014.9 hPa | 0 mm | - | 328 W/m² | - |
| 1788106633 | 13.89° C | 88% | 1014.9 hPa | 0 mm | - | 186 W/m² | - |
| 1788106327 | 13.89° C | 88% | 1014.9 hPa | 0 mm | - | 126 W/m² | - |
| 1788106023 | 13.89° C | 89% | 1014.7 hPa | 0 mm | - | 110 W/m² | - |
| 1788105723 | 13.89° C | 89% | 1014.8 hPa | 0 mm | - | 109 W/m² | - |
| 1788105419 | 13.89° C | 89% | 1014.9 hPa | 0 mm | - | 87 W/m² | - |
| 1788105115 | 13.89° C | 89% | 1014.7 hPa | 0 mm | - | 82 W/m² | - |
| 1788104810 | 13.89° C | 89% | 1014.8 hPa | 0 mm | - | 78 W/m² | - |
| 1788104506 | 13.89° C | 89% | 1014.7 hPa | 0 mm | - | 69 W/m² | - |
| 1788104203 | 13.89° C | 89% | 1014.8 hPa | 0 mm | - | 65 W/m² | - |
| 1788103902 | 13.89° C | 89% | 1015 hPa | 0 mm | - | 61 W/m² | - |
| 1788103601 | 13.89° C | 89% | 1014.8 hPa | 0 mm | - | 59 W/m² | - |
| 1788103300 | 13.89° C | 89% | 1014.8 hPa | 0 mm | - | 61 W/m² | - |
| 1788103000 | 13.89° C | 89% | 1014.7 hPa | 0 mm | - | 55 W/m² | - |
| 1788102695 | 13.89° C | 89% | 1014.7 hPa | 0 mm | - | 50 W/m² | - |
| 1788102390 | 13.89° C | 89% | 1014.7 hPa | 0 mm | - | 45 W/m² | - |
| 1788102085 | 13.89° C | 89% | 1014.7 hPa | 0 mm | - | 42 W/m² | - |
| 1788101784 | 13.89° C | 89% | 1014.7 hPa | 0 mm | - | 43 W/m² | - |
| 1788101479 | 13.89° C | 89% | 1014.6 hPa | 0 mm | - | 35 W/m² | - |
* Rain latest hour (hover to see other rain measurements)
** Current wind speed in m/s (hover to see current wind gust speed)